Temp_Advection
nan nan nan nan nan nan nan nan nan nan nan nan nan nan nan nan nan nan nan nan nan nan nan nan nan nan nan nan nan nan nan nan nan nan nan nan nan nan nan nan nan nan nan nan
nan -0 -0 -0 -0 -0 -0 -0 0 0 -0 0 -0 -0 -1 -0 0 -0 -0 -1 -1 -1 -1 -1 -1 -0 -0 0 0 0 -0 -0 0 -0 -0 -0 -0 0 0 0 0 -0 0 nan
nan 0 0 0 0 -0 -0 -0 0 0 -0 -0 -0 -0 -0 -0 -0 -0 -0 0 0 0 0 -0 -0 -0 -0 -0 -0 -0 -0 -0 0 0 0 0 0 0 -0 -1 -0 -0 0 nan
nan 0 1 0 1 0 0 0 0 0 0 0 0 -0 0 -0 -0 -0 0 1 0 0 0 -0 -0 -0 -0 -0 -0 -0 -0 0 1 0 0 0 -0 -1 -1 -0 -0 0 1 nan
nan 0 0 0 0 0 0 0 -0 -0 -0 -0 0 0 -0 -0 -0 0 0 0 0 0 0 0 0 -0 -0 -0 -0 -0 0 0 0 0 -0 -0 -0 0 0 0 -0 -0 -0 nan
nan 0 -0 -0 -0 -0 -0 -0 -0 -0 0 0 0 0 -0 -0 0 0 0 0 0 0 -0 -0 -0 -0 -0 -0 -0 -0 -0 0 0 0 0 0 -0 0 0 0 0 0 0 nan
nan 0 0 -0 -0 0 -0 -0 -0 0 0 -0 -0 0 -0 0 -0 0 0 -0 0 -0 -0 -1 -1 -1 -1 -1 -0 -0 -0 -0 -0 0 0 0 0 0 0 0 0 -0 -1 nan
nan 0 0 -0 -0 0 0 0 0 0 0 0 0 -0 0 0 0 0 -0 0 0 -0 -0 -1 -1 -1 -1 -1 -1 -1 -0 -0 -0 -0 -0 0 0 -0 -0 -0 0 0 0 nan
nan 0 0 -0 0 -0 -0 -0 -0 -0 -0 0 -0 -0 -0 -0 0 -0 -0 -0 -0 -0 -0 -0 -0 -1 -1 -1 -1 -1 -1 -0 -0 -0 -0 -0 -0 -0 -0 -0 -0 -0 -0 nan
nan 0 0 -0 -0 -0 -0 -0 -0 0 0 -0 0 -0 0 -0 -0 0 -0 -0 -1 -1 -1 -0 -0 -1 -1 -1 -1 -0 -0 -1 -0 -0 -1 -1 -0 -0 -0 -0 -0 -0 -0 nan
nan 0 -0 0 -0 0 -0 -0 -0 -0 0 0 -0 0 0 0 0 0 -0 -0 -0 -1 -1 -1 -1 -0 -1 -1 -0 -0 -0 -0 -0 -0 -0 -0 -1 -0 -0 -0 -0 -0 0 nan
nan 0 0 0 -0 0 0 -0 -0 0 0 -0 0 -0 0 0 0 -0 -0 -0 -0 -0 -0 -0 -0 -0 -0 -0 -0 -0 -0 -0 -0 -1 -1 -1 -0 -0 -0 -0 0 0 1 nan
nan -0 0 0 -0 -0 0 0 -0 -0 -0 -0 0 -0 0 0 -0 -0 0 -0 -0 -0 -1 -1 -1 -0 -0 -0 -0 -0 -0 -0 -1 -1 -1 -1 -1 -1 -1 -0 1 1 1 nan
nan -0 0 0 0 -0 0 0 0 -0 -0 -0 -0 -1 -0 0 0 0 -0 -0 -0 -0 -1 -1 -0 -0 -0 -0 -0 -0 -0 -0 -1 -1 -1 -1 -1 -1 -0 -0 0 0 0 nan
nan -0 -0 -0 0 0 -0 -0 0 -0 -0 -0 -0 -0 -0 0 0 0 0 -0 -0 -0 -0 -0 -0 -0 -0 -0 -0 -0 -0 -0 -1 -1 -1 -1 -1 -0 -0 -0 0 0 1 nan
nan -0 -0 -0 0 0 -0 -0 -0 -0 -0 -0 -0 -1 -1 -0 0 0 0 -0 -0 -0 -0 -0 -0 -0 -0 -0 -0 -0 -0 -1 -1 -1 -0 -1 -1 -0 -0 0 0 0 1 nan
nan -0 0 -0 -0 -0 0 -0 -0 -0 -0 -0 -0 -1 -0 -0 -0 0 0 0 -0 -0 -0 -0 -0 -0 -0 -0 -0 -0 -0 -1 -0 -0 -0 -0 -0 -0 -0 -0 0 0 0 nan
nan -0 -0 -0 0 -0 -0 -0 -0 -1 -0 0 -0 -0 -0 0 0 0 0 0 0 -0 -0 -0 -0 -0 -0 -0 -0 -0 -0 -0 -0 -0 -0 -0 -0 0 -0 0 0 0 0 nan
nan -0 -0 0 -0 -0 -0 -0 -0 -0 0 -0 -0 -0 -0 0 0 0 0 -0 -0 -0 -0 -0 -0 -0 -0 -0 -0 -0 -0 -0 -0 -0 -0 -0 -0 -0 -0 -0 -0 0 0 nan
nan -0 -0 0 -0 -0 -0 -0 -0 -0 -0 0 -0 -0 -0 0 0 0 0 -0 -0 -0 0 -0 -0 -0 0 -0 -0 -0 -0 -0 -0 -0 -0 -0 -0 0 -0 -0 -0 0 0 nan
nan -0 -0 0 -0 -0 -0 -1 -0 -0 -0 0 0 -0 0 0 0 -0 -0 -0 -0 -0 0 0 0 0 0 -0 -0 -0 -0 -0 -0 0 -0 -0 0 0 0 -0 -0 0 0 nan
nan 0 0 -0 -0 -0 -0 0 -0 -0 0 0 0 0 0 0 0 -0 -0 -0 -0 -0 -0 0 0 0 0 -0 -0 -0 -0 -0 0 0 -0 0 0 -0 -0 0 -0 -0 -0 nan
nan -0 0 -0 -0 -0 -0 -0 -0 0 0 0 0 0 0 0 -0 0 -0 -0 -0 -0 -0 -0 0 0 -0 -0 0 -0 -1 -0 0 0 -0 -0 0 0 -0 -0 -0 -0 -0 nan
nan -0 -0 0 -0 -0 -1 0 0 0 0 0 0 0 0 0 0 0 -0 -0 -0 -0 -0 -1 -0 -0 -0 -0 -0 -0 -0 -0 -0 0 -0 -0 -0 -0 -0 -0 -0 -0 -0 nan
nan 0 -0 0 -1 -1 -1 0 0 -0 0 0 0 0 0 0 0 0 -0 -0 -0 -0 -0 0 -0 -0 -0 -0 0 -0 -0 -0 -0 -0 -0 -0 -0 -0 -0 -0 -0 -0 -0 nan
nan nan nan nan nan nan nan nan nan nan nan nan nan nan nan nan nan nan nan nan nan nan nan nan nan nan nan nan nan nan nan nan nan nan nan nan nan nan nan nan nan nan nan nan
Wind_Speed
18 7 15 14 6 3 9 5 4 2 2 2 4 4 9 17 18 20 26 27 28 27 25 25 25 26 26 26 26 27 27 31 33 33 33 33 33 32 36 34 33 29 27 28
8 13 9 12 7 5 6 6 4 1 3 2 2 8 14 12 9 12 15 17 16 16 18 20 22 23 27 28 28 25 27 25 29 37 38 36 36 36 33 32 35 33 31 31
6 3 9 13 10 9 2 5 3 3 1 2 5 5 2 1 5 11 12 10 13 15 16 12 7 6 11 17 22 27 28 28 27 26 30 38 37 37 36 36 33 33 35 36
1 2 11 10 13 9 4 2 4 4 2 1 4 3 3 3 7 7 14 19 20 21 21 19 17 12 8 5 8 15 24 31 29 26 26 29 38 41 40 39 35 34 36 36
3 10 11 7 3 6 1 3 4 3 4 2 2 2 3 3 2 4 6 13 18 22 21 20 18 17 15 11 7 6 10 17 28 31 28 27 27 28 28 32 35 36 35 36
2 6 6 3 11 5 10 5 6 4 2 0 1 2 3 2 3 2 1 13 17 22 22 19 17 16 14 12 10 7 5 7 11 20 21 23 26 27 29 29 30 29 32 36
5 5 3 7 9 2 1 3 2 2 1 3 2 2 5 3 1 4 2 13 17 19 21 21 20 18 16 14 11 9 7 5 6 11 16 19 22 25 28 30 32 33 32 32
4 3 3 1 3 6 2 2 4 4 3 1 1 5 2 3 1 7 3 14 18 20 19 20 18 15 16 15 14 13 13 11 10 10 11 12 13 15 18 19 24 28 30 32
4 3 2 5 2 2 3 2 2 6 2 1 2 5 5 2 4 5 10 19 20 20 19 22 18 16 17 16 16 16 15 15 15 15 16 15 16 18 19 20 21 22 25 28
2 5 2 1 4 10 2 6 2 2 2 3 3 4 3 3 5 2 8 15 19 19 23 22 21 19 18 17 16 16 14 12 14 15 17 20 21 21 23 24 24 23 25 27
3 3 1 3 1 5 2 1 4 3 1 3 1 3 6 8 6 1 7 15 12 19 20 22 21 16 17 17 13 12 12 12 13 13 14 15 16 19 21 23 23 23 24 26
1 4 3 2 1 1 1 4 4 3 3 2 1 4 2 5 3 7 15 16 13 16 18 18 14 15 15 14 11 10 11 12 16 18 19 19 19 17 16 19 21 21 21 22
4 2 3 1 1 3 3 3 3 4 3 4 3 3 0 1 4 11 10 8 12 15 17 15 15 13 14 14 13 13 12 12 14 15 16 19 21 18 18 17 17 14 13 13
5 3 3 4 3 3 3 4 4 5 3 3 5 5 6 6 5 10 8 8 11 14 12 12 12 12 13 14 15 15 15 14 15 14 14 15 15 15 16 15 13 10 13 14
3 3 1 1 1 3 3 4 7 6 5 6 3 6 7 7 7 13 0 7 9 10 10 11 11 11 12 13 13 14 14 17 17 15 13 11 11 7 7 8 8 8 9 11
2 3 2 3 0 5 4 7 9 9 4 10 7 17 13 17 11 2 3 4 6 6 7 9 8 9 11 13 13 13 11 13 14 13 10 9 8 5 2 2 5 7 8 9
4 5 2 2 3 3 5 10 14 5 5 9 7 10 3 3 6 2 2 4 6 5 6 8 8 8 8 10 11 11 12 11 11 9 8 7 6 6 7 8 9 11 13 17
5 4 2 1 3 1 4 3 8 13 6 12 7 7 6 7 7 3 3 6 5 4 5 5 5 6 8 9 8 9 10 10 8 7 6 6 5 7 9 10 14 17 18 17
1 4 2 1 2 6 1 2 5 6 2 8 12 12 10 5 3 2 2 5 4 3 3 2 2 4 5 6 8 10 8 10 9 7 8 10 9 11 13 16 17 16 15 17
4 4 3 1 2 3 3 1 2 3 1 2 7 6 4 4 1 2 2 4 3 2 2 1 0 1 4 4 6 7 9 11 13 14 14 14 14 15 15 15 16 16 15 15
2 1 3 3 2 6 7 7 2 2 3 2 7 8 7 3 3 3 2 3 2 1 1 1 2 3 4 5 6 6 10 14 16 16 16 16 16 17 16 15 13 12 11 12
7 6 4 3 3 6 5 2 3 1 3 4 6 8 8 8 6 3 2 2 2 3 3 4 5 6 7 7 7 11 15 17 17 17 17 16 15 15 13 12 13 13 12 11
4 5 4 7 5 5 1 4 4 9 16 13 6 6 7 11 10 7 5 3 3 5 6 8 9 10 8 13 11 15 17 16 15 14 15 13 13 14 13 11 10 9 8 7
3 6 2 1 2 7 15 12 12 12 8 7 7 6 7 10 11 11 9 7 6 9 11 12 13 14 16 16 14 15 15 14 13 14 14 13 11 10 10 8 8 7 6 6
5 7 4 4 7 12 14 9 7 8 8 9 9 8 8 11 14 13 13 11 9 10 15 14 15 17 16 14 13 13 13 11 11 11 11 10 8 8 7 6 6 6 5 5
7 6 4 4 4 2 6 6 12 15 12 11 11 9 8 11 15 15 14 14 12 13 15 17 17 16 16 15 14 13 12 11 8 8 8 7 6 5 5 5 5 6 8 10
Wind_Direction
185 183 199 186 156 149 142 139 160 207 121 151 229 240 270 274 275 266 266 268 273 279 286 283 276 270 267 263 262 255 251 244 238 237 237 239 242 247 246 246 247 248 251 254
175 202 174 156 140 127 132 144 197 68 68 161 348 283 261 256 258 268 278 283 293 303 299 290 280 273 266 260 254 249 247 248 245 242 242 244 246 247 250 248 251 246 248 249
135 151 149 160 172 139 109 154 167 132 38 95 314 282 301 26 29 60 68 77 70 50 36 24 5 301 275 259 250 244 241 243 247 246 245 243 243 246 249 248 242 245 244 245
19 185 146 160 168 161 148 173 112 104 82 262 4 300 321 61 76 58 59 62 54 49 47 41 41 42 30 334 271 255 244 237 235 239 245 248 245 246 247 249 251 248 245 245
242 163 120 107 141 92 144 94 101 90 85 23 25 137 264 129 95 40 37 43 41 39 36 35 35 35 29 24 7 299 277 259 242 235 244 245 251 254 255 255 256 255 252 247
108 137 128 146 149 140 162 87 57 57 80 17 215 185 291 124 162 182 50 37 28 29 26 24 23 22 22 14 8 6 314 277 254 237 242 244 250 256 254 253 254 256 254 252
46 14 60 98 89 44 121 127 44 29 45 215 58 141 250 227 289 172 99 7 27 24 17 14 8 3 357 350 338 326 321 319 273 250 249 252 253 256 262 264 261 257 255 256
113 98 28 9 124 164 84 163 158 195 189 215 33 230 215 199 83 147 10 11 22 14 13 8 2 357 351 341 327 307 293 290 288 276 260 254 254 258 262 264 265 265 261 259
115 55 23 38 103 94 166 75 138 103 18 31 215 276 313 40 144 237 330 3 9 13 9 359 355 344 339 334 330 318 298 276 279 276 273 272 273 273 272 270 269 269 268 266
142 99 30 176 65 41 92 139 91 10 122 246 268 273 188 168 195 251 327 349 357 0 353 351 345 342 335 327 318 317 295 290 282 288 289 283 281 280 282 280 276 271 264 260
117 95 28 128 97 162 116 83 53 97 146 174 277 264 201 198 181 186 319 350 355 352 351 346 339 337 337 335 322 319 309 293 291 290 296 293 288 281 282 280 274 269 263 256
41 117 124 108 348 210 147 165 160 140 203 69 79 272 222 205 238 341 332 344 349 350 349 351 354 351 355 1 3 357 345 323 305 297 293 297 290 291 300 298 278 263 255 251
174 68 100 74 107 10 197 185 118 104 81 196 154 258 339 279 278 308 314 350 351 350 350 358 359 7 10 16 21 17 8 358 347 330 310 296 292 297 294 296 281 266 259 257
96 95 144 181 189 137 178 172 182 134 132 177 231 292 280 286 288 316 347 355 355 354 356 356 1 13 9 11 11 5 1 357 351 342 329 322 300 290 290 283 262 245 242 231
90 107 10 263 188 179 193 167 188 200 186 177 248 222 263 278 294 309 319 356 348 357 359 358 360 14 5 10 7 10 7 1 359 350 354 341 325 313 282 265 242 227 216 205
32 129 95 339 85 223 245 220 205 221 235 256 251 284 270 277 295 238 338 340 335 1 351 350 355 18 9 12 8 7 10 16 5 3 9 6 355 337 316 129 183 166 155 153
119 136 87 271 348 318 287 225 199 196 207 206 199 231 330 318 329 315 301 334 345 344 343 350 5 8 11 13 8 5 8 10 11 13 16 30 39 58 74 85 109 115 122 129
132 107 109 254 357 259 237 161 182 207 225 215 261 265 261 303 304 308 321 336 335 334 351 4 8 7 21 23 11 11 13 17 24 20 31 49 75 89 105 125 125 120 123 126
146 125 110 133 258 287 257 174 150 183 285 207 227 259 276 272 296 260 279 337 350 342 339 355 3 17 24 23 16 17 26 36 49 60 62 68 77 93 102 104 104 116 118 120
68 88 118 179 243 232 247 199 196 205 331 224 202 238 232 185 311 228 253 355 1 324 292 283 303 32 46 34 22 29 57 68 86 86 86 89 93 98 106 109 113 117 119 121
122 100 183 234 265 283 250 258 230 108 215 243 243 251 254 201 212 141 122 44 41 31 307 207 175 104 81 66 53 69 83 93 91 92 95 98 101 103 105 107 108 110 112 104
177 170 195 199 217 269 199 112 165 208 303 295 274 267 241 218 189 163 146 87 89 86 121 139 129 120 106 91 99 108 107 99 98 100 101 103 102 101 99 101 99 90 81 78
207 186 183 180 212 239 276 275 288 283 293 290 272 279 233 208 195 178 167 149 91 93 125 135 136 127 116 113 115 115 104 103 108 113 112 112 109 104 101 98 91 87 81 68
232 180 218 48 247 240 269 305 297 301 280 267 281 282 253 220 205 188 176 164 139 118 116 128 131 126 121 117 123 118 117 119 123 121 117 113 107 99 93 85 80 68 61 42
209 150 203 254 287 280 284 276 323 327 300 291 294 287 263 224 211 202 185 172 157 145 132 133 134 132 130 134 134 126 126 126 126 121 113 108 102 96 87 79 65 48 33 30
196 195 177 215 183 270 269 271 312 308 300 290 287 280 263 229 215 203 194 186 176 164 158 154 153 153 149 150 151 143 136 132 132 128 120 113 100 88 72 50 33 21 20 13
Height
1471 1474 1471 1475 1479 1482 1487 1496 1498 1498 1497 1498 1501 1502 1498 1496 1493 1493 1491 1490 1490 1491 1492 1492 1492 1492 1492 1494 1496 1497 1499 1502 1504 1505 1506 1509 1510 1513 1516 1518 1520 1523 1526 1527
1470 1468 1470 1477 1480 1483 1489 1495 1498 1497 1498 1499 1501 1500 1491 1488 1487 1488 1488 1487 1487 1487 1485 1484 1484 1483 1484 1485 1487 1489 1492 1494 1496 1498 1500 1502 1504 1505 1509 1511 1513 1516 1518 1520
1466 1467 1469 1472 1479 1485 1491 1493 1497 1496 1498 1501 1501 1492 1489 1487 1487 1487 1486 1486 1486 1484 1482 1480 1478 1477 1477 1477 1479 1481 1484 1486 1489 1490 1493 1493 1496 1497 1500 1502 1504 1506 1509 1511
1471 1468 1469 1473 1479 1482 1491 1492 1493 1496 1498 1500 1504 1500 1489 1491 1490 1489 1488 1486 1485 1483 1482 1480 1478 1477 1475 1475 1474 1475 1476 1478 1481 1484 1484 1486 1487 1488 1490 1493 1497 1499 1500 1503
1474 1468 1473 1479 1484 1484 1493 1493 1496 1500 1505 1507 1506 1505 1488 1492 1492 1491 1489 1487 1485 1483 1481 1480 1479 1477 1476 1474 1473 1473 1473 1473 1475 1476 1479 1481 1481 1483 1485 1486 1488 1490 1491 1493
1472 1471 1475 1479 1484 1488 1495 1498 1503 1509 1512 1511 1509 1508 1489 1489 1489 1490 1489 1487 1484 1483 1481 1480 1479 1477 1476 1474 1473 1472 1471 1470 1470 1471 1473 1475 1476 1478 1478 1480 1481 1482 1483 1484
1476 1476 1477 1478 1485 1492 1492 1494 1510 1510 1516 1504 1513 1514 1490 1488 1488 1488 1489 1486 1483 1482 1481 1478 1476 1474 1474 1473 1472 1471 1469 1468 1467 1468 1468 1469 1471 1471 1472 1473 1474 1475 1476 1476
1482 1484 1482 1482 1485 1488 1496 1493 1506 1499 1502 1502 1513 1502 1484 1486 1486 1486 1486 1484 1482 1481 1479 1477 1476 1474 1473 1471 1469 1468 1466 1466 1465 1464 1464 1464 1465 1465 1466 1466 1466 1466 1467 1470
1484 1489 1484 1484 1484 1487 1496 1502 1505 1521 1531 1521 1503 1497 1487 1484 1485 1486 1484 1481 1480 1478 1477 1476 1474 1472 1470 1468 1466 1464 1463 1462 1460 1460 1460 1460 1460 1461 1461 1461 1461 1461 1461 1461
1477 1490 1486 1487 1485 1490 1489 1499 1507 1521 1521 1503 1497 1498 1484 1485 1484 1484 1482 1478 1475 1474 1473 1472 1470 1468 1465 1463 1461 1459 1458 1457 1457 1456 1455 1455 1455 1454 1454 1454 1454 1454 1454 1454
1474 1482 1491 1487 1490 1494 1498 1502 1506 1509 1513 1502 1495 1482 1481 1479 1480 1482 1479 1477 1475 1473 1471 1470 1467 1464 1462 1459 1456 1455 1454 1454 1454 1453 1452 1451 1450 1449 1448 1447 1447 1447 1446 1447
1475 1482 1490 1491 1492 1491 1491 1495 1501 1504 1509 1523 1518 1487 1476 1478 1477 1476 1475 1474 1474 1473 1471 1468 1464 1461 1459 1456 1454 1453 1452 1451 1450 1449 1448 1447 1446 1444 1443 1442 1440 1440 1439 1440
1474 1489 1497 1494 1494 1495 1495 1495 1497 1503 1508 1519 1509 1483 1476 1476 1475 1475 1475 1473 1472 1470 1467 1463 1462 1460 1458 1456 1454 1452 1450 1447 1446 1444 1443 1442 1441 1439 1438 1437 1436 1435 1435 1436
1471 1486 1486 1487 1487 1493 1499 1493 1496 1499 1509 1508 1506 1489 1475 1472 1473 1472 1472 1471 1470 1467 1465 1464 1463 1459 1458 1456 1452 1449 1448 1446 1444 1442 1440 1438 1436 1435 1434 1433 1433 1433 1433 1433
1474 1485 1490 1488 1488 1489 1488 1488 1494 1499 1496 1498 1487 1489 1472 1470 1470 1469 1470 1469 1468 1466 1465 1463 1461 1459 1457 1455 1453 1450 1447 1445 1443 1441 1439 1438 1436 1435 1433 1432 1432 1432 1431 1432
1477 1489 1495 1497 1487 1489 1491 1488 1490 1490 1488 1487 1486 1479 1467 1466 1466 1468 1468 1467 1466 1464 1463 1462 1461 1458 1458 1455 1452 1449 1447 1445 1444 1442 1440 1439 1437 1435 1434 1432 1432 1432 1433 1434
1477 1490 1496 1493 1490 1488 1490 1478 1479 1482 1480 1477 1484 1466 1462 1463 1465 1465 1466 1465 1463 1462 1462 1460 1459 1458 1457 1455 1453 1450 1448 1447 1446 1444 1442 1441 1440 1438 1437 1438 1438 1436 1437 1440
1477 1481 1490 1491 1493 1497 1467 1466 1467 1469 1467 1470 1466 1462 1462 1463 1463 1463 1462 1462 1462 1460 1459 1459 1459 1459 1458 1456 1455 1451 1450 1449 1448 1446 1445 1444 1443 1442 1442 1442 1442 1441 1442 1444
1471 1478 1490 1492 1482 1479 1461 1464 1465 1465 1459 1459 1462 1459 1461 1461 1461 1462 1461 1460 1459 1458 1459 1459 1459 1459 1458 1456 1455 1453 1451 1450 1449 1448 1447 1447 1447 1447 1448 1447 1448 1448 1450 1449
1474 1475 1486 1492 1482 1480 1462 1458 1457 1458 1462 1456 1457 1457 1458 1460 1460 1459 1459 1458 1458 1458 1458 1458 1458 1458 1458 1457 1456 1455 1453 1452 1451 1450 1450 1451 1452 1452 1453 1453 1453 1454 1455 1454
1479 1481 1482 1490 1484 1473 1460 1456 1458 1463 1465 1455 1455 1455 1456 1457 1457 1456 1457 1457 1457 1457 1457 1457 1457 1458 1457 1457 1456 1456 1455 1455 1454 1454 1455 1456 1457 1457 1458 1459 1459 1460 1461 1461
1473 1479 1477 1483 1477 1482 1456 1456 1458 1457 1454 1454 1453 1453 1453 1454 1454 1455 1456 1457 1457 1456 1456 1456 1457 1458 1457 1458 1458 1458 1458 1458 1458 1459 1460 1460 1461 1462 1463 1464 1464 1464 1464 1464
1470 1467 1471 1470 1467 1454 1454 1454 1453 1453 1453 1452 1451 1451 1451 1451 1452 1453 1455 1456 1456 1455 1455 1456 1458 1458 1458 1459 1461 1461 1461 1462 1462 1463 1464 1465 1465 1466 1466 1467 1468 1468 1467 1467
1460 1459 1462 1461 1451 1453 1452 1451 1451 1449 1449 1449 1449 1448 1448 1449 1450 1451 1453 1454 1455 1456 1456 1457 1458 1459 1460 1462 1464 1464 1464 1465 1466 1466 1467 1468 1469 1469 1469 1469 1469 1469 1468 1467
1457 1456 1455 1457 1452 1450 1449 1450 1449 1448 1447 1447 1446 1446 1446 1446 1448 1449 1450 1453 1455 1457 1457 1458 1459 1461 1462 1464 1466 1467 1467 1468 1468 1469 1469 1470 1471 1471 1471 1471 1470 1469 1469 1468
1450 1450 1452 1449 1448 1449 1447 1447 1447 1446 1446 1445 1444 1444 1443 1444 1446 1447 1449 1451 1454 1455 1457 1458 1460 1462 1463 1465 1467 1468 1468 1469 1470 1470 1471 1471 1472 1472 1472 1471 1471 1470 1468 1467